Weather History for St. Paul, MN

Change the Weather History Date:

Thursday, May 23, 2013

  Actual Average Record
Temperature  
Mean Temperature 54 °F -  
Max Temperature 64 °F 68 °F 88 °F (2012)
Min Temperature 45 °F 47 °F 39 °F (2003)
Degree Days  
Heating Degree Days 10    
Growing Degree Days 4 (Base 50)    
Moisture  
Dew Point 34 °F    
Average Humidity 49    
Maximum Humidity 74    
Minimum Humidity 29    
Precipitation  
Precipitation 0.00 in - - ()
Sea Level Pressure  
Sea Level Pressure 30.23 in    
Wind  
Wind Speed 10 mph (NNE)    
Max Wind Speed 16 mph    
Max Gust Speed 22 mph    
Visibility 10 miles    
Events      
Averages and records for this station are not official NWS values.
T = Trace of Precipitation, MM = Missing Value Source: NWS Daily Summary

Daily Weather History Graph

Daily Weather History Graph

Search for Another Location

Airport:

Trip Planner

Search our weather history database for the weather conditions in past years. The results will help you decide how hot, cold, wet, or windy it might be!

Date:

Astronomy

May. 23, 2013 Rise Set
Actual Time 5:35 AM CDT 8:43 PM CDT
Civil Twilight 4:59 AM CDT 9:18 PM CDT
Nautical Twilight 4:14 AM CDT 10:04 PM CDT
Astronomical Twilight 3:19 AM CDT 11:00 PM CDT
Moon 7:13 PM CDT (5/23) 4:25 AM CDT (5/23)
Length of Visible Light 16h 18m
Length of Day
15h 08m
Waxing Gibbous, 97% of the Moon is Illuminated
May 23
Waxing Gibbous
May 24
Full
May 31
Last Quarter
Jun 8
New
Jun 16
First Quarter

Hourly Weather History & Observations

Time (CDT) Temp. Windchill Dew Point Humidity Pressure Visibility Wind Dir Wind Speed Gust Speed Precip Events Conditions
12:53 AM 52.0 °F - 42.1 °F 69% 30.01 in 10.0 mi NNE 8.1 mph - N/A   Clear
1:53 AM 51.1 °F - 41.0 °F 68% 30.04 in 10.0 mi North 10.4 mph - N/A   Clear
2:53 AM 48.9 °F - 41.0 °F 74% 30.07 in 10.0 mi North 9.2 mph - N/A   Clear
3:53 AM 48.0 °F - 37.9 °F 68% 30.10 in 10.0 mi North 12.7 mph - N/A   Clear
4:53 AM 46.9 °F - 37.0 °F 68% 30.14 in 10.0 mi North 12.7 mph - N/A   Clear
5:53 AM 45.0 °F 41.8 °F 36.0 °F 71% 30.17 in 10.0 mi North 5.8 mph - N/A   Clear
6:53 AM 45.0 °F 40.6 °F 35.1 °F 68% 30.20 in 10.0 mi North 8.1 mph 19.6 mph N/A   Clear
7:53 AM 46.9 °F - 34.0 °F 61% 30.23 in 10.0 mi NNE 12.7 mph - N/A   Clear
8:53 AM 48.9 °F - 33.1 °F 54% 30.25 in 10.0 mi NNE 13.8 mph - N/A   Clear
9:53 AM 51.1 °F - 33.1 °F 50% 30.26 in 10.0 mi North 16.1 mph - N/A   Clear
10:53 AM 53.1 °F - 34.0 °F 48% 30.27 in 10.0 mi North 9.2 mph - N/A   Clear
11:53 AM 55.9 °F - 33.1 °F 42% 30.27 in 10.0 mi NNE 12.7 mph 21.9 mph N/A   Clear
12:53 PM 57.9 °F - 32.0 °F 37% 30.28 in 10.0 mi North 11.5 mph 19.6 mph N/A   Clear
1:53 PM 59.0 °F - 32.0 °F 36% 30.28 in 10.0 mi NNW 16.1 mph 20.7 mph N/A   Clear
2:53 PM 61.0 °F - 32.0 °F 34% 30.28 in 10.0 mi NE 6.9 mph 18.4 mph N/A   Clear
3:53 PM 63.0 °F - 33.1 °F 33% 30.27 in 10.0 mi North 6.9 mph 17.3 mph N/A   Clear
4:53 PM 64.0 °F - 34.0 °F 33% 30.27 in 10.0 mi North 10.4 mph - N/A   Clear
5:53 PM 64.0 °F - 32.0 °F 30% 30.27 in 10.0 mi NNE 8.1 mph - N/A   Clear
6:53 PM 63.0 °F - 30.0 °F 29% 30.29 in 10.0 mi NNE 9.2 mph 16.1 mph N/A   Clear
7:53 PM 61.0 °F - 30.9 °F 32% 30.29 in 10.0 mi NE 8.1 mph - N/A   Clear
8:53 PM 57.9 °F - 30.9 °F 36% 30.30 in 10.0 mi East 9.2 mph - N/A   Clear
9:53 PM 55.0 °F - 30.9 °F 40% 30.32 in 10.0 mi ENE 5.8 mph - N/A   Clear
10:53 PM 52.0 °F - 28.9 °F 41% 30.35 in 10.0 mi East 5.8 mph - N/A   Clear
11:53 PM 50.0 °F - 28.0 °F 43% 30.36 in 10.0 mi ESE 5.8 mph - N/A   Clear